SCP
0 0 0 0 0 0 0 0 0 0 0 0 0 0 0 0 0 0 0 0 0 0 0 0 0 0 0 0 0 0 0 0 0 0 0 0 0 0 0 0 0 0 0
0 0 0 0 0 0 0 0 0 0 0 0 0 0 0 0 0 0 0 0 0 0 0 0 0 0 0 0 0 0 0 0 0 0 0 0 0 0 0 0 0 0 0
0 0 0 0 0 0 0 0 0 0 0 0 0 0 0 0 0 0 0 0 0 0 0 0 0 0 0 0 0 0 0 0 0 0 0 0 0 0 0 0 0 0 0
0 0 0 0 0 0 0 0 0 0 0 0 0 0 0 0 0 0 0 0 0 0 0 0 0 0 0 0 0 0 0 0 0 0 0 0 0 0 0 0 0 0 0
0 1 0 0 0 0 0 0 0 0 0 0 0 0 0 0 0 0 0 0 0 0 0 0 0 0 0 0 0 0 0 0 0 0 0 0 0 0 0 0 0 0 0
0 0 1 1 0 0 0 0 0 0 0 0 0 0 0 0 0 0 0 0 0 0 0 0 0 0 0 0 0 0 0 0 0 0 0 0 0 0 0 0 0 0 0
0 0 0 1 1 0 0 0 0 0 0 0 0 0 0 0 0 0 0 0 0 0 0 0 0 0 0 0 0 0 0 0 0 0 0 0 0 0 0 0 0 0 0
0 0 0 1 1 0 0 0 0 0 0 0 0 0 0 0 0 0 0 0 0 0 0 0 0 0 0 0 0 0 0 0 0 0 0 0 0 0 0 0 0 0 0
0 0 0 0 0 1 0 0 0 0 0 0 0 0 0 0 0 0 0 0 0 0 0 0 0 0 0 0 0 0 0 0 0 0 0 0 0 0 0 0 0 0 0
0 0 0 0 0 0 0 0 0 0 0 0 0 0 0 0 0 0 0 0 0 0 0 0 0 0 0 0 0 0 0 0 0 0 0 0 0 0 0 0 0 0 0
0 0 0 0 0 0 1 0 0 0 0 0 0 0 0 0 0 0 0 0 0 0 0 0 0 0 0 0 0 0 0 0 0 0 0 0 0 0 0 0 0 0 0
0 0 0 0 0 0 0 0 0 0 0 0 0 0 0 0 0 0 0 0 0 0 0 0 0 0 0 0 0 0 0 0 0 0 0 0 0 0 0 0 0 0 0
0 0 0 0 0 0 0 0 0 1 0 0 0 0 0 0 0 0 0 0 0 0 0 0 0 0 0 0 0 0 0 0 0 0 0 0 0 0 0 0 0 0 0
0 0 0 0 0 0 0 0 0 0 1 0 0 0 0 0 0 0 0 0 0 0 0 0 0 0 0 0 0 0 0 0 0 0 0 0 0 0 0 0 0 0 0
0 0 0 0 0 0 0 0 0 0 0 1 1 0 0 0 0 0 0 0 0 0 0 0 0 0 0 0 0 0 0 0 0 0 0 0 0 0 0 0 0 0 0
0 0 0 0 0 0 0 0 0 0 0 1 1 0 0 0 0 0 0 0 0 0 0 0 0 0 0 0 0 0 0 0 0 0 0 0 0 0 0 0 0 0 0
0 0 0 0 0 0 0 0 0 0 0 0 0 0 0 0 0 0 0 0 0 0 0 0 0 0 0 0 0 0 0 0 0 0 0 0 0 0 0 0 0 0 0
0 0 0 0 0 0 0 0 0 0 0 0 0 0 0 0 0 0 0 0 0 0 0 0 0 0 0 0 0 0 0 0 0 0 0 0 0 0 0 0 0 0 0
0 0 0 0 0 0 0 0 0 0 0 0 0 0 0 0 0 0 0 0 0 0 0 0 0 0 0 0 0 0 0 0 0 0 0 0 0 0 0 0 0 0 0
0 0 0 0 0 0 0 0 0 0 0 0 0 0 0 0 0 0 0 0 0 0 0 0 0 0 0 0 0 0 0 0 0 0 0 0 0 0 0 0 0 0 0
0 0 0 0 0 0 0 0 0 0 0 0 0 0 0 0 0 0 0 0 0 0 0 0 0 0 0 0 0 0 0 0 0 0 0 0 0 0 0 0 0 0 0
0 0 0 0 0 0 0 0 0 0 0 0 0 0 0 0 0 0 0 0 0 0 0 0 0 0 0 0 0 0 0 0 0 0 0 0 0 0 0 0 0 0 0
0 0 0 0 0 0 0 0 0 0 0 0 0 0 0 0 0 0 0 0 0 0 0 0 0 0 0 0 0 0 0 0 0 0 0 0 0 0 0 0 0 0 0
0 -0 0 -0 0 0 0 -0 0 0 0 0 0 0 0 0 0 0 0 0 0 0 0 0 0 0 0 0 0 0 0 0 0 0 0 0 0 0 0 0 0 0 0
0 0 0 0 0 0 -0 0 0 0 0 0 0 0 0 0 0 0 0 0 0 0 0 0 0 0 0 0 0 0 0 0 0 0 0 0 0 0 0 0 0 0 0
0 0 0 0 0 0 0 0 0 0 0 0 0 0 0 0 0 0 0 0 0 0 0 0 0 0 0 0 0 0 0 0 0 0 0 0 0 0 0 0 0 0 0
Wind_Speed_500mb
84 80 77 74 69 69 69 67 61 73 77 76 77 74 78 71 68 65 60 57 52 43 34 30 23 17 33 32 29 28 26 22 18 17 17 16 15 13 15 14 16 15 14
86 92 93 88 81 75 69 72 67 84 82 81 75 76 76 74 75 69 67 67 59 47 40 31 24 22 34 33 30 28 24 22 21 19 16 16 16 11 14 13 13 14 12
81 85 94 107 86 83 88 72 73 85 83 84 79 76 76 80 83 76 75 72 63 55 41 36 29 27 35 34 31 28 26 22 20 17 14 14 15 10 7 11 12 13 10
60 65 91 94 96 89 92 84 91 93 88 93 93 83 78 85 88 87 81 75 75 59 48 38 28 34 40 38 34 31 27 22 20 18 15 13 14 13 12 6 6 9 7
53 63 62 73 83 96 103 110 105 94 101 98 93 89 82 86 93 88 83 79 79 65 50 42 35 44 48 44 35 32 28 24 22 19 15 13 12 12 12 11 10 10 10
48 50 62 67 67 77 94 102 104 115 100 107 102 95 91 90 96 93 87 91 79 65 53 45 41 50 55 50 44 34 31 27 23 18 17 15 16 15 14 14 9 12 11
53 61 62 59 65 72 74 83 95 102 84 105 109 100 94 93 92 91 93 102 76 66 59 54 50 54 59 49 44 39 34 29 24 21 20 19 20 18 15 15 17 14 9
56 56 55 57 63 67 71 84 99 85 112 93 94 106 69 81 94 88 90 90 79 76 70 65 59 53 63 59 49 42 38 30 27 26 25 24 23 21 18 19 20 18 16
70 69 68 67 63 65 71 70 91 112 95 110 108 75 51 43 75 98 106 98 87 82 72 74 68 60 64 66 54 49 47 37 31 31 29 27 26 25 23 22 22 22 20
98 87 83 80 78 73 72 74 67 79 131 132 119 111 87 70 73 41 102 106 101 90 86 86 80 71 63 64 59 55 57 45 38 38 36 31 31 30 28 26 25 25 24
109 103 96 92 88 84 83 80 77 73 95 92 134 128 114 78 80 86 71 99 99 100 100 93 86 78 72 69 67 58 58 51 46 46 41 39 36 35 32 30 27 28 27
97 101 98 98 102 95 90 90 90 82 69 83 102 111 127 115 83 93 78 113 111 109 101 95 92 87 83 80 73 68 61 58 54 50 48 45 41 39 37 33 30 30 30
73 77 79 94 95 100 94 89 89 90 88 81 90 88 105 121 101 87 78 93 89 100 103 101 97 94 91 88 82 77 70 63 59 56 54 50 47 43 38 34 32 32 33
77 72 69 70 72 81 80 87 88 89 84 87 91 101 103 117 125 107 77 102 70 80 106 112 106 104 100 96 90 85 78 67 64 61 59 54 51 47 40 36 34 34 35
75 71 66 63 63 63 72 76 85 92 94 89 89 91 102 112 114 125 119 107 101 67 97 103 106 116 108 104 98 90 83 71 69 67 62 58 55 49 43 38 35 35 36
75 68 68 68 67 64 67 73 79 84 87 94 100 96 97 108 122 128 126 112 102 96 78 114 117 112 112 111 105 94 85 73 69 70 65 60 59 52 47 39 38 37 39
77 72 72 70 67 72 77 78 82 89 92 94 91 99 93 103 121 123 122 128 125 112 86 91 102 105 95 106 109 96 85 76 74 71 66 62 62 55 47 43 41 40 41
71 69 72 72 73 69 76 78 82 94 88 95 98 101 99 96 119 116 114 128 126 117 108 91 83 86 90 86 82 96 91 85 85 76 68 70 63 57 49 46 43 43 44
67 64 66 71 69 71 68 78 82 78 86 88 93 99 96 98 102 109 119 128 131 124 120 108 91 83 74 80 77 88 89 84 80 72 73 69 64 56 52 49 46 45 45
62 63 60 63 68 74 75 74 75 78 81 88 92 96 90 97 100 100 117 124 123 122 102 88 81 75 73 77 73 81 90 85 84 72 73 70 65 58 55 54 49 47 46
54 56 57 60 62 65 68 77 76 89 72 81 87 91 84 83 88 87 101 110 112 101 98 84 72 74 75 74 80 81 80 82 79 76 75 73 65 61 57 56 53 49 46
42 44 49 56 58 64 60 62 67 84 74 81 87 86 76 72 78 80 97 94 86 112 104 94 83 80 75 70 72 74 77 81 76 82 72 64 63 62 60 58 51 48 50
27 33 41 47 52 53 59 62 69 58 80 82 81 78 73 68 66 81 84 80 79 84 97 95 74 71 60 64 66 64 68 69 71 56 57 63 61 64 63 53 48 48 50
6 20 28 35 39 41 42 59 57 81 77 72 66 65 68 64 66 79 70 80 72 78 87 82 74 65 49 48 45 45 48 51 51 56 54 51 52 54 52 49 46 50 53
9 5 15 29 34 33 36 47 52 47 59 56 49 48 54 63 67 72 69 69 55 68 58 46 39 36 33 34 33 39 39 46 52 53 56 56 59 55 55 51 54 57 59
15 7 2 15 24 33 35 35 33 50 51 48 42 42 52 54 60 57 52 50 65 69 68 58 43 38 42 39 31 32 37 45 49 47 50 48 51 52 43 52 52 54 53
Wind_Direction_500mb
246 241 238 238 232 221 216 217 216 214 211 214 214 206 205 207 211 205 209 208 210 208 224 222 241 233 165 164 168 163 164 166 162 160 157 153 148 154 148 139 121 119 121
258 249 240 236 234 228 221 217 217 215 213 213 209 209 213 211 213 209 210 208 200 207 208 205 230 241 173 170 171 168 173 172 175 177 176 167 158 149 145 140 130 128 143
253 255 247 238 239 240 228 224 216 220 219 216 210 210 212 215 213 214 215 208 198 200 217 208 224 242 186 180 175 172 173 179 182 182 181 175 169 167 150 155 155 146 167
256 253 245 250 241 241 238 225 221 221 219 217 205 205 213 214 214 215 214 214 199 202 205 207 218 204 184 182 179 177 181 188 187 186 188 186 179 184 198 193 166 172 168
255 254 256 250 240 244 234 229 217 224 218 216 213 207 213 217 216 214 210 216 206 208 203 215 230 218 185 184 184 184 185 191 196 197 198 196 201 202 205 218 211 189 178
250 252 256 259 254 242 227 221 218 218 225 220 215 210 212 219 220 217 221 208 204 206 209 213 225 216 199 191 190 190 192 200 207 208 204 208 214 216 218 227 245 213 203
265 262 258 255 258 252 253 237 230 221 217 218 212 209 211 212 221 211 216 216 200 204 208 211 222 222 206 201 196 193 195 210 215 216 217 221 222 224 231 236 236 232 226
259 262 265 262 255 256 254 239 227 218 210 217 208 203 195 198 209 203 207 200 202 208 208 215 221 226 218 216 219 209 205 217 219 220 224 226 228 232 236 238 240 239 238
260 259 259 259 258 257 253 246 231 224 208 216 209 211 187 200 196 197 203 209 208 211 213 217 221 225 221 222 224 227 232 237 232 229 230 231 233 237 241 243 248 243 243
266 262 255 254 252 252 252 255 247 227 212 217 218 212 214 207 186 193 202 204 209 213 217 217 218 223 222 227 232 233 236 237 236 236 238 235 237 240 245 248 250 251 250
263 263 254 249 248 247 246 248 247 244 252 217 211 217 219 210 210 199 200 204 208 213 215 217 221 222 224 228 227 238 240 235 234 236 238 237 239 243 247 249 254 254 256
264 258 255 250 247 246 243 242 246 247 247 237 227 214 213 211 208 199 204 202 206 211 216 216 220 221 224 227 232 237 235 236 235 237 237 237 238 242 248 252 256 259 261
257 256 251 249 246 244 244 242 241 243 244 244 220 216 210 213 220 202 199 199 199 210 213 217 219 222 225 228 232 235 234 233 235 237 237 238 239 243 249 255 260 261 262
261 256 249 241 237 239 237 240 239 239 236 239 235 234 231 226 223 226 204 201 192 204 213 216 219 221 225 229 232 233 233 229 234 237 237 238 240 244 249 255 259 262 264
258 254 245 237 235 232 232 231 239 237 233 231 231 231 227 227 238 226 230 217 209 195 214 216 219 224 225 228 231 232 233 231 231 236 237 239 241 243 250 256 262 265 267
258 249 245 241 239 236 234 231 232 233 230 228 228 227 232 234 228 229 226 225 218 213 215 222 226 227 226 228 230 229 231 230 231 236 236 239 241 243 251 258 263 266 267
260 252 250 246 241 246 238 234 228 225 227 226 225 228 228 226 224 224 223 228 232 231 219 225 225 229 229 230 230 226 228 228 229 234 236 241 241 244 250 259 264 267 269
263 252 247 245 243 244 233 226 225 220 221 223 223 222 227 229 227 229 234 232 222 221 232 227 223 227 227 228 229 225 227 224 227 229 236 240 240 244 252 260 265 268 270
263 256 248 242 240 237 234 226 225 222 221 219 219 226 227 225 228 229 234 232 232 230 225 236 225 218 217 218 213 215 223 223 231 227 232 237 241 244 253 262 264 267 272
264 255 243 237 237 235 237 228 225 218 220 219 220 227 228 229 228 234 233 233 233 234 221 213 212 209 209 210 209 214 216 221 225 224 231 234 241 245 253 260 264 267 270
263 254 245 236 232 232 231 228 224 220 217 211 220 227 231 235 235 236 237 232 232 230 218 215 206 203 202 210 213 217 219 224 221 224 228 237 237 245 255 259 263 266 269
259 249 238 227 224 226 225 221 223 211 217 206 216 220 228 230 230 240 241 241 241 227 212 211 212 211 212 217 214 218 220 215 218 226 234 234 240 248 255 258 263 263 266
249 240 227 220 220 222 220 220 213 227 208 212 217 221 222 225 228 234 235 241 238 232 235 225 220 213 215 226 225 219 218 220 222 225 229 240 245 251 256 259 258 266 271
231 214 212 212 217 223 216 216 209 200 208 210 216 220 222 228 228 228 229 227 218 220 221 223 218 213 231 218 211 223 228 219 222 229 233 239 245 250 256 261 268 271 272
64 163 211 211 212 206 203 208 217 206 194 202 210 216 226 227 227 228 223 212 218 213 208 204 184 183 195 208 201 190 201 214 222 230 237 244 252 260 266 269 271 274 276
50 44 178 181 180 184 184 192 198 199 196 202 207 222 221 225 222 220 208 204 187 175 177 176 186 194 180 163 174 198 217 222 227 236 245 249 259 267 276 275 276 280 281
Wind_Speed_850mb
84 80 77 74 69 69 69 67 61 73 77 76 77 74 78 71 68 65 60 57 52 43 34 30 23 17 33 32 29 28 26 22 18 17 17 16 15 13 15 14 16 15 14
86 92 93 88 81 75 69 72 67 84 82 81 75 76 76 74 75 69 67 67 59 47 40 31 24 22 34 33 30 28 24 22 21 19 16 16 16 11 14 13 13 14 12
81 85 94 107 86 83 88 72 73 85 83 84 79 76 76 80 83 76 75 72 63 55 41 36 29 27 35 34 31 28 26 22 20 17 14 14 15 10 7 11 12 13 10
60 65 91 94 96 89 92 84 91 93 88 93 93 83 78 85 88 87 81 75 75 59 48 38 28 34 40 38 34 31 27 22 20 18 15 13 14 13 12 6 6 9 7
53 63 62 73 83 96 103 110 105 94 101 98 93 89 82 86 93 88 83 79 79 65 50 42 35 44 48 44 35 32 28 24 22 19 15 13 12 12 12 11 10 10 10
48 50 62 67 67 77 94 102 104 115 100 107 102 95 91 90 96 93 87 91 79 65 53 45 41 50 55 50 44 34 31 27 23 18 17 15 16 15 14 14 9 12 11
53 61 62 59 65 72 74 83 95 102 84 105 109 100 94 93 92 91 93 102 76 66 59 54 50 54 59 49 44 39 34 29 24 21 20 19 20 18 15 15 17 14 9
56 56 55 57 63 67 71 84 99 85 112 93 94 106 69 81 94 88 90 90 79 76 70 65 59 53 63 59 49 42 38 30 27 26 25 24 23 21 18 19 20 18 16
70 69 68 67 63 65 71 70 91 112 95 110 108 75 51 43 75 98 106 98 87 82 72 74 68 60 64 66 54 49 47 37 31 31 29 27 26 25 23 22 22 22 20
98 87 83 80 78 73 72 74 67 79 131 132 119 111 87 70 73 41 102 106 101 90 86 86 80 71 63 64 59 55 57 45 38 38 36 31 31 30 28 26 25 25 24
109 103 96 92 88 84 83 80 77 73 95 92 134 128 114 78 80 86 71 99 99 100 100 93 86 78 72 69 67 58 58 51 46 46 41 39 36 35 32 30 27 28 27
97 101 98 98 102 95 90 90 90 82 69 83 102 111 127 115 83 93 78 113 111 109 101 95 92 87 83 80 73 68 61 58 54 50 48 45 41 39 37 33 30 30 30
73 77 79 94 95 100 94 89 89 90 88 81 90 88 105 121 101 87 78 93 89 100 103 101 97 94 91 88 82 77 70 63 59 56 54 50 47 43 38 34 32 32 33
77 72 69 70 72 81 80 87 88 89 84 87 91 101 103 117 125 107 77 102 70 80 106 112 106 104 100 96 90 85 78 67 64 61 59 54 51 47 40 36 34 34 35
75 71 66 63 63 63 72 76 85 92 94 89 89 91 102 112 114 125 119 107 101 67 97 103 106 116 108 104 98 90 83 71 69 67 62 58 55 49 43 38 35 35 36
75 68 68 68 67 64 67 73 79 84 87 94 100 96 97 108 122 128 126 112 102 96 78 114 117 112 112 111 105 94 85 73 69 70 65 60 59 52 47 39 38 37 39
77 72 72 70 67 72 77 78 82 89 92 94 91 99 93 103 121 123 122 128 125 112 86 91 102 105 95 106 109 96 85 76 74 71 66 62 62 55 47 43 41 40 41
71 69 72 72 73 69 76 78 82 94 88 95 98 101 99 96 119 116 114 128 126 117 108 91 83 86 90 86 82 96 91 85 85 76 68 70 63 57 49 46 43 43 44
67 64 66 71 69 71 68 78 82 78 86 88 93 99 96 98 102 109 119 128 131 124 120 108 91 83 74 80 77 88 89 84 80 72 73 69 64 56 52 49 46 45 45
62 63 60 63 68 74 75 74 75 78 81 88 92 96 90 97 100 100 117 124 123 122 102 88 81 75 73 77 73 81 90 85 84 72 73 70 65 58 55 54 49 47 46
54 56 57 60 62 65 68 77 76 89 72 81 87 91 84 83 88 87 101 110 112 101 98 84 72 74 75 74 80 81 80 82 79 76 75 73 65 61 57 56 53 49 46
42 44 49 56 58 64 60 62 67 84 74 81 87 86 76 72 78 80 97 94 86 112 104 94 83 80 75 70 72 74 77 81 76 82 72 64 63 62 60 58 51 48 50
27 33 41 47 52 53 59 62 69 58 80 82 81 78 73 68 66 81 84 80 79 84 97 95 74 71 60 64 66 64 68 69 71 56 57 63 61 64 63 53 48 48 50
6 20 28 35 39 41 42 59 57 81 77 72 66 65 68 64 66 79 70 80 72 78 87 82 74 65 49 48 45 45 48 51 51 56 54 51 52 54 52 49 46 50 53
9 5 15 29 34 33 36 47 52 47 59 56 49 48 54 63 67 72 69 69 55 68 58 46 39 36 33 34 33 39 39 46 52 53 56 56 59 55 55 51 54 57 59
15 7 2 15 24 33 35 35 33 50 51 48 42 42 52 54 60 57 52 50 65 69 68 58 43 38 42 39 31 32 37 45 49 47 50 48 51 52 43 52 52 54 53
Wind_Direction_850mb
246 241 238 238 232 221 216 217 216 214 211 214 214 206 205 207 211 205 209 208 210 208 224 222 241 233 165 164 168 163 164 166 162 160 157 153 148 154 148 139 121 119 121
258 249 240 236 234 228 221 217 217 215 213 213 209 209 213 211 213 209 210 208 200 207 208 205 230 241 173 170 171 168 173 172 175 177 176 167 158 149 145 140 130 128 143
253 255 247 238 239 240 228 224 216 220 219 216 210 210 212 215 213 214 215 208 198 200 217 208 224 242 186 180 175 172 173 179 182 182 181 175 169 167 150 155 155 146 167
256 253 245 250 241 241 238 225 221 221 219 217 205 205 213 214 214 215 214 214 199 202 205 207 218 204 184 182 179 177 181 188 187 186 188 186 179 184 198 193 166 172 168
255 254 256 250 240 244 234 229 217 224 218 216 213 207 213 217 216 214 210 216 206 208 203 215 230 218 185 184 184 184 185 191 196 197 198 196 201 202 205 218 211 189 178
250 252 256 259 254 242 227 221 218 218 225 220 215 210 212 219 220 217 221 208 204 206 209 213 225 216 199 191 190 190 192 200 207 208 204 208 214 216 218 227 245 213 203
265 262 258 255 258 252 253 237 230 221 217 218 212 209 211 212 221 211 216 216 200 204 208 211 222 222 206 201 196 193 195 210 215 216 217 221 222 224 231 236 236 232 226
259 262 265 262 255 256 254 239 227 218 210 217 208 203 195 198 209 203 207 200 202 208 208 215 221 226 218 216 219 209 205 217 219 220 224 226 228 232 236 238 240 239 238
260 259 259 259 258 257 253 246 231 224 208 216 209 211 187 200 196 197 203 209 208 211 213 217 221 225 221 222 224 227 232 237 232 229 230 231 233 237 241 243 248 243 243
266 262 255 254 252 252 252 255 247 227 212 217 218 212 214 207 186 193 202 204 209 213 217 217 218 223 222 227 232 233 236 237 236 236 238 235 237 240 245 248 250 251 250
263 263 254 249 248 247 246 248 247 244 252 217 211 217 219 210 210 199 200 204 208 213 215 217 221 222 224 228 227 238 240 235 234 236 238 237 239 243 247 249 254 254 256
264 258 255 250 247 246 243 242 246 247 247 237 227 214 213 211 208 199 204 202 206 211 216 216 220 221 224 227 232 237 235 236 235 237 237 237 238 242 248 252 256 259 261
257 256 251 249 246 244 244 242 241 243 244 244 220 216 210 213 220 202 199 199 199 210 213 217 219 222 225 228 232 235 234 233 235 237 237 238 239 243 249 255 260 261 262
261 256 249 241 237 239 237 240 239 239 236 239 235 234 231 226 223 226 204 201 192 204 213 216 219 221 225 229 232 233 233 229 234 237 237 238 240 244 249 255 259 262 264
258 254 245 237 235 232 232 231 239 237 233 231 231 231 227 227 238 226 230 217 209 195 214 216 219 224 225 228 231 232 233 231 231 236 237 239 241 243 250 256 262 265 267
258 249 245 241 239 236 234 231 232 233 230 228 228 227 232 234 228 229 226 225 218 213 215 222 226 227 226 228 230 229 231 230 231 236 236 239 241 243 251 258 263 266 267
260 252 250 246 241 246 238 234 228 225 227 226 225 228 228 226 224 224 223 228 232 231 219 225 225 229 229 230 230 226 228 228 229 234 236 241 241 244 250 259 264 267 269
263 252 247 245 243 244 233 226 225 220 221 223 223 222 227 229 227 229 234 232 222 221 232 227 223 227 227 228 229 225 227 224 227 229 236 240 240 244 252 260 265 268 270
263 256 248 242 240 237 234 226 225 222 221 219 219 226 227 225 228 229 234 232 232 230 225 236 225 218 217 218 213 215 223 223 231 227 232 237 241 244 253 262 264 267 272
264 255 243 237 237 235 237 228 225 218 220 219 220 227 228 229 228 234 233 233 233 234 221 213 212 209 209 210 209 214 216 221 225 224 231 234 241 245 253 260 264 267 270
263 254 245 236 232 232 231 228 224 220 217 211 220 227 231 235 235 236 237 232 232 230 218 215 206 203 202 210 213 217 219 224 221 224 228 237 237 245 255 259 263 266 269
259 249 238 227 224 226 225 221 223 211 217 206 216 220 228 230 230 240 241 241 241 227 212 211 212 211 212 217 214 218 220 215 218 226 234 234 240 248 255 258 263 263 266
249 240 227 220 220 222 220 220 213 227 208 212 217 221 222 225 228 234 235 241 238 232 235 225 220 213 215 226 225 219 218 220 222 225 229 240 245 251 256 259 258 266 271
231 214 212 212 217 223 216 216 209 200 208 210 216 220 222 228 228 228 229 227 218 220 221 223 218 213 231 218 211 223 228 219 222 229 233 239 245 250 256 261 268 271 272
64 163 211 211 212 206 203 208 217 206 194 202 210 216 226 227 227 228 223 212 218 213 208 204 184 183 195 208 201 190 201 214 222 230 237 244 252 260 266 269 271 274 276
50 44 178 181 180 184 184 192 198 199 196 202 207 222 221 225 222 220 208 204 187 175 177 176 186 194 180 163 174 198 217 222 227 236 245 249 259 267 276 275 276 280 281